This is the latest recevied weather packets stored in our database for station/object K7LER. If no packets are shown the sender has not sent any weather packets the latest 10 day(s).
| Time | Temp. | Humidity | Pressure | Rain* | Wind** | Luminosity | Snow |
|---|---|---|---|---|---|---|---|
| 1777776036 | 20° C | 50% | 1012.8 hPa | 0 mm | - | 23 W/m² | - |
| 1777775736 | 20.56° C | 50% | 1012.8 hPa | 0 mm | - | 25 W/m² | - |
| 1777775449 | 20.56° C | 50% | 1012.8 hPa | 0 mm | - | 28 W/m² | - |
| 1777775133 | 20.56° C | 50% | 1012.8 hPa | 0 mm | - | 30 W/m² | - |
| 1777774834 | 20.56° C | 50% | 1012.8 hPa | 0 mm | - | 39 W/m² | - |
| 1777774545 | 20.56° C | 49% | 1012.6 hPa | 0 mm | - | 58 W/m² | - |
| 1777774234 | 21.11° C | 49% | 1012.8 hPa | 0 mm | - | 91 W/m² | - |
| 1777773933 | 21.11° C | 49% | 1012.8 hPa | 0 mm | - | 91 W/m² | - |
| 1777773643 | 21.11° C | 48% | 1012.8 hPa | 0 mm | - | 105 W/m² | - |
| 1777773334 | 21.11° C | 48% | 1012.8 hPa | 0 mm | - | 123 W/m² | - |
| 1777773034 | 21.11° C | 48% | 1012.7 hPa | 0 mm | - | 146 W/m² | - |
| 1777772748 | 21.11° C | 48% | 1012.8 hPa | 0 mm | - | 160 W/m² | - |
| 1777772433 | 21.11° C | 47% | 1012.8 hPa | 0 mm | - | 174 W/m² | - |
| 1777772135 | 21.11° C | 47% | 1012.9 hPa | 0 mm | - | 188 W/m² | - |
| 1777771841 | 21.11° C | 48% | 1012.9 hPa | 0 mm | - | 204 W/m² | - |
| 1777771535 | 21.11° C | 48% | 1012.8 hPa | 0 mm | - | 63 W/m² | - |
| 1777771234 | 21.11° C | 47% | 1012.9 hPa | 0 mm | - | 234 W/m² | - |
| 1777770945 | 21.11° C | 47% | 1012.9 hPa | 0 mm | - | 230 W/m² | - |
| 1777770635 | 21.11° C | 47% | 1012.9 hPa | 0 mm | - | 227 W/m² | - |
| 1777770333 | 21.11° C | 47% | 1012.9 hPa | 0 mm | - | 183 W/m² | - |
| 1777770041 | 21.11° C | 48% | 1012.9 hPa | 0 mm | - | 281 W/m² | - |
| 1777769733 | 21.11° C | 49% | 1013 hPa | 0 mm | - | 336 W/m² | - |
| 1777769433 | 21.11° C | 49% | 1013 hPa | 0 mm | - | 353 W/m² | - |
| 1777769142 | 21.11° C | 50% | 1013 hPa | 0 mm | - | 371 W/m² | - |
| 1777768835 | 21.11° C | 51% | 1013.1 hPa | 0 mm | - | 387 W/m² | - |
* Rain latest hour (hover to see other rain measurements)
** Current wind speed in m/s (hover to see current wind gust speed)